GALAXY 8

导读 | 豆包AI

GALAXY 8(银河8号)是美国休斯通信公司运营的通信卫星,于1997年12月8日发射升空,属于美国银河系列通信卫星的组成部分。卫星运行于地球静止轨道,搭载多频段转发器,主要为美国本土提供广播电视、语音通信、数据传输等服务,依托高功率设计保障通信稳定性,支撑区域通信网络的高效运行,是该系列卫星组网服务中的重要节点。

基本信息
目录编号:
25086
目录名称:
GALAXY 8
国际标识:
1997-078A
轨道中心:
EARTH
卫星名称:
GALAXY 8
卫星全名:
--
卫星状态:
在轨 (已飞行10324 天)
发射日期:
1997-12-08 UTC
国别 :
美国 (US)
星等 :
--
轨道信息
数据来源 国际轨道数据 AOE轨道数据
星历时间 2026-03-15T04:48:35+0800
13小时前
查看轨道信息
2026-03-13T23:00:00+0800
1天前
查看轨道信息
半长轴 42327.403km 42326.837km
偏心率 0.0007252 0.0007038
轨道倾角 13.988° 13.987°
近地点辐角 21.065° 20.173°
升交点赤经 10.595° 10.603°
平近点角 160.252° 75.362°
近地点 35918.57km 35918.91km
远地点 35979.962km 35978.49km
周期 1444.416分钟 1444.387分钟
每日圈数 0.996943 0.996963
详细信息
使用方式:
暂无
2D轨道图
3D轨道图
轨道高度分析图
轨道倾角分析图
轨道综合分析图
查看轨道综合分析图